{"data":{"norad_id":56424,"epoch":"2026-09-20T02:57:39.256128Z","epoch_age_seconds":144730,"freshness":"FRESH","line1":"1 56424U 23061BC  26263.12337102  .00000839  00000+0  40022-4 0  9992","line2":"2 56424  43.0021 161.6816 0001362 269.3175  90.7520 15.27574876186692","mean_motion":15.27574876,"eccentricity":0.0001362,"inclination_deg":43.0021,"raan_deg":161.6816,"arg_perigee_deg":269.3175,"mean_anomaly_deg":90.752,"bstar":4.0022e-5,"rev_number":18669,"period_min":94.267064916038,"perigee_km":482.12994354587,"apogee_km":483.99893481791,"semimajor_km":6861.2014391819,"source":"CELESTRAK","updated_at":"2026-09-21T09:00:33.439468Z"}}